Weather History for KEAR - July, 2012

Change the Weather History Date:

Sunday, July 8, 2012

  Actual Average Record
Temperature  
Mean Temperature 75 °F 75 °F  
Max Temperature 82 °F 87 °F 102 °F (1941)
Min Temperature 68 °F 62 °F 48 °F (1994)
Degree Days  
Heating Degree Days 0 0  
Month to date heating degree days 0  
Since 1 June heating degree days 35  
Since 1 July heating degree days 0  
Cooling Degree Days 10 10  
Month to date cooling degree days 76  
Year to date cooling degree days 302  
Since 1 June cooling degree days 255  
Growing Degree Days 26 (Base 50)    
Moisture  
Dew Point 64 °F    
Average Humidity 74    
Maximum Humidity 93    
Minimum Humidity 54    
Precipitation  
Precipitation 0.01 in - 2.34 in (1957)
Sea Level Pressure  
Sea Level Pressure 30.18 in    
Wind  
Wind Speed 9 mph (NE)    
Max Wind Speed 18 mph    
Max Gust Speed 21 mph    
Visibility 10 miles    
Events      
T = Trace of Precipitation, MM = Missing Value Source: NWS Daily Summary

Daily Weather History Graph

Daily Weather History Graph

Search for Another Location

Airport or City:

Trip Planner

Search our weather history database for the weather conditions in past years. The results will help you decide how hot, cold, wet, or windy it might be!

Date:

Astronomy

Jul. 08, 2012 Rise Set
Actual Time 6:12 AM CDT 9:09 PM CDT
Civil Twilight 5:40 AM CDT 9:41 PM CDT
Nautical Twilight 4:58 AM CDT 10:23 PM CDT
Astronomical Twilight 4:10 AM CDT 11:11 PM CDT
Moon 11:55 PM CDT (7/8) 11:43 AM CDT (7/8)
Length of Visible Light 16h 01m
Length of Day
14h 56m
Waning Gibbous, 73% of the Moon is Illuminated
Jul 8
Waning Gibbous
Jul 10
Last Quarter
Jul 18
New
Jul 26
First Quarter
Aug 1
Full

Hourly Weather History & Observations

Time (CDT) Temp. Heat Index Dew Point Humidity Pressure Visibility Wind Dir Wind Speed Gust Speed Precip Events Conditions
12:15 AM 75.2 °F - 69.8 °F 83% 30.17 in 10.0 mi NE 8.1 mph - N/A   Overcast
12:35 AM 73.4 °F - 69.8 °F 88% 30.16 in 10.0 mi NE 8.1 mph - N/A   Mostly Cloudy
12:55 AM 73.4 °F - 69.8 °F 88% 30.15 in 10.0 mi NE 6.9 mph - N/A   Scattered Clouds
1:15 AM 73.4 °F - 69.8 °F 88% 30.16 in 10.0 mi NE 4.6 mph - N/A   Mostly Cloudy
1:35 AM 71.6 °F - 69.8 °F 94% 30.15 in 10.0 mi ENE 6.9 mph - N/A   Overcast
1:55 AM 71.6 °F - 69.8 °F 94% 30.16 in 10.0 mi ENE 5.8 mph - N/A   Mostly Cloudy
2:15 AM 71.6 °F - 69.8 °F 94% 30.17 in 9.0 mi ENE 5.8 mph - N/A   Mostly Cloudy
2:35 AM 71.6 °F - 69.8 °F 94% 30.17 in 8.0 mi NE 5.8 mph - N/A   Mostly Cloudy
2:55 AM 71.6 °F - 69.8 °F 94% 30.17 in 10.0 mi NE 6.9 mph - N/A   Overcast
3:15 AM 71.6 °F - 68.0 °F 88% 30.17 in 10.0 mi ENE 9.2 mph - N/A   Overcast
3:35 AM 69.8 °F - 66.2 °F 88% 30.17 in 10.0 mi NE 9.2 mph - N/A   Mostly Cloudy
3:55 AM 69.8 °F - 66.2 °F 88% 30.17 in 10.0 mi ENE 8.1 mph - N/A   Mostly Cloudy
4:15 AM 71.6 °F - 64.4 °F 78% 30.18 in 10.0 mi ENE 9.2 mph - N/A   Overcast
4:35 AM 71.6 °F - 64.4 °F 78% 30.16 in 10.0 mi ENE 11.5 mph - N/A   Mostly Cloudy
4:55 AM 69.8 °F - 64.4 °F 83% 30.17 in 10.0 mi East 9.2 mph - N/A   Mostly Cloudy
5:15 AM 69.8 °F - 62.6 °F 78% 30.18 in 10.0 mi NNE 8.1 mph - N/A   Overcast
5:35 AM 69.8 °F - 62.6 °F 78% 30.18 in 10.0 mi North 10.4 mph - N/A   Overcast
5:55 AM 69.8 °F - 64.4 °F 83% 30.16 in 10.0 mi North 11.5 mph - N/A   Overcast
6:15 AM 69.8 °F - 62.6 °F 78% 30.16 in 10.0 mi North 12.7 mph - N/A   Mostly Cloudy
6:35 AM 69.8 °F - 62.6 °F 78% 30.16 in 10.0 mi North 15.0 mph - N/A   Scattered Clouds
6:55 AM 69.8 °F - 60.8 °F 73% 30.18 in 10.0 mi North 15.0 mph - N/A   Scattered Clouds
7:15 AM 69.8 °F - 60.8 °F 73% 30.21 in 10.0 mi NNE 4.6 mph - N/A   Mostly Cloudy
7:35 AM 69.8 °F - 62.6 °F 78% 30.20 in 10.0 mi NNE 11.5 mph - N/A   Overcast
7:55 AM 69.8 °F - 60.8 °F 73% 30.19 in 10.0 mi North 13.8 mph - N/A   Overcast
8:15 AM 69.8 °F - 62.6 °F 78% 30.19 in 10.0 mi NNE 11.5 mph - N/A   Scattered Clouds
8:35 AM 71.6 °F - 60.8 °F 69% 30.24 in 10.0 mi ESE 5.8 mph - N/A   Partly Cloudy
8:55 AM 69.8 °F - 62.6 °F 78% 30.25 in 10.0 mi South 6.9 mph - N/A   Mostly Cloudy
9:15 AM 69.8 °F - 62.6 °F 78% 30.24 in 10.0 mi Calm Calm - N/A   Overcast
9:35 AM 71.6 °F - 62.6 °F 73% 30.24 in 10.0 mi Calm Calm - N/A   Scattered Clouds
9:55 AM 73.4 °F - 62.6 °F 69% 30.24 in 10.0 mi North 4.6 mph - N/A   Clear
10:15 AM 73.4 °F - 62.6 °F 69% 30.24 in 10.0 mi NNW 4.6 mph - N/A   Clear
10:35 AM 73.4 °F - 62.6 °F 69% 30.23 in 10.0 mi NNE 4.6 mph - N/A   Scattered Clouds
10:55 AM 75.2 °F - 62.6 °F 65% 30.22 in 10.0 mi NE 9.2 mph - N/A   Partly Cloudy
11:15 AM 75.2 °F - 62.6 °F 65% 30.21 in 10.0 mi ENE 8.1 mph - N/A   Clear
11:35 AM 78.8 °F - 62.6 °F 57% 30.20 in 10.0 mi NE 13.8 mph - N/A   Clear
11:55 AM 77.0 °F - 62.6 °F 61% 30.20 in 10.0 mi ENE 13.8 mph - N/A   Clear
12:15 PM 77.0 °F - 62.6 °F 61% 30.18 in 10.0 mi ENE 16.1 mph - N/A   Clear
12:35 PM 78.8 °F - 62.6 °F 57% 30.18 in 10.0 mi ENE 15.0 mph - N/A   Clear
12:55 PM 78.8 °F - 62.6 °F 57% 30.19 in 10.0 mi East 18.4 mph - N/A   Clear
1:15 PM 78.8 °F - 62.6 °F 57% 30.19 in 10.0 mi East 17.3 mph 20.7 mph N/A   Clear
1:35 PM 80.6 °F 81.8 °F 62.6 °F 54% 30.19 in 10.0 mi ENE 13.8 mph - N/A   Clear
1:55 PM 80.6 °F 81.8 °F 62.6 °F 54% 30.19 in 10.0 mi East 16.1 mph 20.7 mph N/A   Scattered Clouds
2:15 PM 80.6 °F 81.8 °F 62.6 °F 54% 30.19 in 10.0 mi ENE 10.4 mph 16.1 mph N/A   Mostly Cloudy
2:35 PM 80.6 °F 81.8 °F 62.6 °F 54% 30.19 in 10.0 mi East 12.7 mph - N/A   Overcast
2:55 PM 80.6 °F 81.8 °F 62.6 °F 54% 30.19 in 10.0 mi ENE 12.7 mph - N/A   Overcast
3:15 PM 82.4 °F 83.9 °F 64.4 °F 54% 30.19 in 10.0 mi East 12.7 mph - N/A   Overcast
3:35 PM 80.6 °F 81.8 °F 62.6 °F 54% 30.19 in 10.0 mi East 9.2 mph - N/A   Overcast
3:55 PM 80.6 °F 81.8 °F 62.6 °F 54% 30.19 in 10.0 mi ENE 10.4 mph - N/A   Overcast
4:15 PM 80.6 °F 81.8 °F 62.6 °F 54% 30.19 in 10.0 mi East 11.5 mph - N/A   Overcast
4:35 PM 78.8 °F - 62.6 °F 57% 30.18 in 10.0 mi East 8.1 mph - N/A   Overcast
4:55 PM 78.8 °F - 62.6 °F 57% 30.18 in 10.0 mi East 6.9 mph - N/A   Overcast
5:15 PM 77.0 °F - 62.6 °F 61% 30.18 in 10.0 mi ENE 9.2 mph - N/A   Overcast
5:35 PM 77.0 °F - 62.6 °F 61% 30.17 in 10.0 mi ENE 5.8 mph - N/A   Overcast
5:55 PM 77.0 °F - 62.6 °F 61% 30.17 in 10.0 mi ENE 12.7 mph - N/A   Overcast
6:15 PM 75.2 °F - 60.8 °F 61% 30.17 in 10.0 mi NE 4.6 mph - N/A   Overcast
6:35 PM 77.0 °F - 62.6 °F 61% 30.15 in 10.0 mi NE 6.9 mph - N/A   Overcast
6:55 PM 78.8 °F - 62.6 °F 57% 30.15 in 10.0 mi ENE 9.2 mph - N/A   Overcast
7:15 PM 77.0 °F - 62.6 °F 61% 30.15 in 10.0 mi ENE 8.1 mph - N/A   Overcast
7:35 PM 77.0 °F - 62.6 °F 61% 30.14 in 10.0 mi East 8.1 mph - N/A   Overcast
7:55 PM 75.2 °F - 62.6 °F 65% 30.14 in 10.0 mi East 3.5 mph - N/A   Mostly Cloudy
8:15 PM 75.2 °F - 62.6 °F 65% 30.14 in 10.0 mi Calm Calm - N/A   Mostly Cloudy
8:35 PM 75.2 °F - 64.4 °F 69% 30.14 in 10.0 mi Calm Calm - N/A   Overcast
8:55 PM 75.2 °F - 62.6 °F 65% 30.14 in 10.0 mi Calm Calm - N/A   Mostly Cloudy
9:15 PM 71.6 °F - 64.4 °F 78% 30.15 in 10.0 mi SE 6.9 mph - N/A   Scattered Clouds
9:35 PM 71.6 °F - 64.4 °F 78% 30.16 in 10.0 mi SE 3.5 mph - N/A   Overcast
9:55 PM 71.6 °F - 66.2 °F 83% 30.17 in 10.0 mi Calm Calm - N/A   Overcast
10:15 PM 71.6 °F - 66.2 °F 83% 30.17 in 10.0 mi SSE 4.6 mph - N/A   Overcast
10:35 PM 71.6 °F - 66.2 °F 83% 30.18 in 10.0 mi Calm Calm - N/A   Overcast
10:55 PM 71.6 °F - 66.2 °F 83% 30.18 in 10.0 mi Calm Calm - N/A   Overcast
11:15 PM 71.6 °F - 66.2 °F 83% 30.19 in 10.0 mi Calm Calm - N/A   Overcast
11:35 PM 71.6 °F - 66.2 °F 83% 30.20 in 10.0 mi Calm Calm - N/A   Overcast
11:55 PM 71.6 °F - 66.2 °F 83% 30.20 in 10.0 mi NNE 4.6 mph - N/A   Overcast